Location: Joplin, MO
(37.0842°N, 94.5133°W)
Time: 21:51:34
(UTC+02:00)

Courier 1B Rocket - Pass Details

Date: 08 April 2023
Orbit: 920 x 1202 km, 28.2° (Epoch: 05 June)

Event Time Altitude Azimuth Distance (km) Brightness Sun altitude
Rises 01:01:29 0° 257° (WSW) 4,092 9.8 19.9°
Reaches altitude 10° 01:04:29 10° 251° (WSW) 3,128 9.6 19.3°
Maximum altitude 01:11:47 44° 182° (S) 1,588 6.4 17.8°
Drops below altitude 10° 01:18:50 10° 114° (ESE) 3,031 7.1 16.4°
Sets 01:21:43 0° 108° (ESE) 3,954 7.6 15.9°
